| time (UTC) | temp F | wind direction | speed knots | gust knots | rain 1hr in | rain 24hr in | rain mn in | humidity % | barometer mb |
| 20260904071530 | 58 | 173 | 0.0 | 2.6 | 0.00 | 0.02 | 0.01 | 94 | 1002.6 |
| 20260904071032 | 58 | 180 | 0.9 | 1.7 | 0.00 | 0.02 | 0.01 | 95 | 1002.8 |
| 20260904070530 | 57 | 193 | 0.0 | 1.7 | 0.00 | 0.02 | 0.01 | 95 | 1002.7 |
| 20260904070027 | 57 | 193 | 0.0 | 4.3 | 0.00 | 0.02 | 0.01 | 95 | 1002.8 |
| 20260904065529 | 57 | 193 | 0.0 | 4.3 | 0.00 | 0.02 | 0.01 | 95 | 1002.9 |
| 20260904065025 | 57 | 215 | 0.0 | 1.7 | 0.00 | 0.02 | 0.01 | 95 | 1002.9 |
| 20260904064524 | 57 | 215 | 0.0 | 1.7 | 0.00 | 0.02 | 0.01 | 95 | 1003.1 |
| 20260904064024 | 57 | 215 | 0.0 | 0.9 | 0.00 | 0.02 | 0.01 | 94 | 1003.2 |
| 20260904063524 | 57 | 215 | 0.0 | 1.7 | 0.00 | 0.02 | 0.01 | 94 | 1003.2 |
| 20260904063124 | 57 | 215 | 0.0 | 1.7 | 0.00 | 0.02 | 0.01 | 94 | 1003.3 |
| 20260904062522 | 57 | 215 | 0.0 | 1.7 | 0.00 | 0.02 | 0.01 | 94 | 1003.3 |
| 20260904062025 | 57 | 215 | 0.0 | 2.6 | 0.00 | 0.02 | 0.01 | 94 | 1003.3 |
| 20260904061523 | 57 | 215 | 0.0 | 2.6 | 0.00 | 0.02 | 0.01 | 94 | 1003.5 |
| 20260904061021 | 57 | 180 | 0.0 | 2.6 | 0.00 | 0.02 | 0.01 | 94 | 1003.5 |
| 20260904060519 | 56 | 245 | 0.0 | 1.7 | 0.00 | 0.02 | 0.01 | 94 | 1003.5 |
| 20260904060018 | 56 | 211 | 0.0 | 0.9 | 0.00 | 0.02 | 0.01 | 93 | 1003.7 |
| 20260904055517 | 56 | 211 | 0.0 | 0.9 | 0.00 | 0.02 | 0.01 | 93 | 1003.7 |
| 20260904055018 | 56 | 211 | 0.0 | 0.0 | 0.00 | 0.02 | 0.01 | 93 | 1003.8 |
| 20260904054516 | 56 | 211 | 0.0 | 0.0 | 0.00 | 0.02 | 0.01 | 93 | 1003.9 |
| 20260904054015 | 56 | 211 | 0.0 | 0.9 | 0.00 | 0.02 | 0.01 | 93 | 1004.0 |
| 20260904053514 | 56 | 211 | 0.0 | 1.7 | 0.00 | 0.02 | 0.01 | 92 | 1003.9 |
| 20260904053017 | 56 | 211 | 0.0 | 1.7 | 0.00 | 0.02 | 0.01 | 92 | 1004.0 |
| 20260904052512 | 56 | 211 | 0.0 | 0.9 | 0.00 | 0.02 | 0.01 | 92 | 1004.2 |
| 20260904052012 | 56 | 211 | 0.0 | 0.9 | 0.00 | 0.02 | 0.01 | 92 | 1004.2 |
| 20260904051525 | 56 | 211 | 0.0 | 0.9 | 0.00 | 0.02 | 0.01 | 91 | 1004.3 |
| 20260904051010 | 56 | 211 | 0.0 | 1.7 | 0.00 | 0.02 | 0.01 | 91 | 1004.3 |
| 20260904050509 | 56 | 211 | 0.0 | 1.7 | 0.00 | 0.02 | 0.01 | 91 | 1004.3 |
| 20260904050009 | 56 | 211 | 0.0 | 1.7 | 0.00 | 0.02 | 0.01 | 91 | 1004.3 |
| 20260904045509 | 56 | 211 | 0.0 | 1.7 | 0.00 | 0.02 | 0.01 | 91 | 1004.4 |
| 20260904045011 | 56 | 211 | 0.0 | 1.7 | 0.00 | 0.02 | 0.01 | 91 | 1004.4 |
| 20260904044508 | 56 | 211 | 0.0 | 2.6 | 0.00 | 0.02 | 0.01 | 91 | 1004.5 |
| 20260904044007 | 56 | 229 | 0.0 | 3.5 | 0.00 | 0.02 | 0.01 | 91 | 1004.6 |
| 20260904043508 | 56 | 254 | 0.9 | 3.5 | 0.00 | 0.02 | 0.01 | 91 | 1004.7 |
| 20260904043010 | 56 | 263 | 0.0 | 2.6 | 0.00 | 0.02 | 0.01 | 91 | 1004.8 |
| 20260904042510 | 56 | 202 | 0.0 | 3.5 | 0.00 | 0.02 | 0.01 | 91 | 1004.8 |
| 20260904042006 | 56 | 269 | 0.0 | 3.5 | 0.00 | 0.02 | 0.01 | 91 | 1004.8 |
| 20260904041513 | 56 | 161 | 0.0 | 2.6 | 0.00 | 0.02 | 0.01 | 91 | 1004.7 |
| 20260904041005 | 56 | 214 | 0.9 | 2.6 | 0.00 | 0.02 | 0.01 | 91 | 1004.6 |
| 20260904040508 | 56 | 315 | 0.0 | 2.6 | 0.00 | 0.02 | 0.01 | 91 | 1004.7 |
| 20260904040006 | 56 | 294 | 0.0 | 2.6 | 0.00 | 0.02 | 0.01 | 91 | 1004.8 |
| 20260904035504 | 56 | 188 | 0.0 | 3.5 | 0.00 | 0.02 | 0.01 | 91 | 1004.8 |
| 20260904035007 | 56 | 184 | 0.0 | 2.6 | 0.00 | 0.02 | 0.01 | 90 | 1004.9 |
| 20260904034505 | 57 | 331 | 0.0 | 2.6 | 0.00 | 0.02 | 0.01 | 90 | 1004.8 |
| 20260904034007 | 57 | 241 | 0.9 | 4.3 | 0.00 | 0.02 | 0.01 | 90 | 1004.8 |
| 20260904033502 | 57 | 233 | 0.9 | 4.3 | 0.00 | 0.02 | 0.01 | 90 | 1005.1 |
| 20260904033002 | 57 | 187 | 0.9 | 4.3 | 0.00 | 0.02 | 0.01 | 90 | 1005.1 |
| 20260904032502 | 57 | 261 | 0.0 | 4.3 | 0.00 | 0.02 | 0.01 | 90 | 1005.1 |
| 20260904032100 | 57 | 314 | 0.9 | 4.3 | 0.00 | 0.02 | 0.01 | 90 | 1005.1 |
| 20260904031600 | 57 | 304 | 0.9 | 6.1 | 0.00 | 0.02 | 0.01 | 90 | 1005.2 |
| 20260904031100 | 57 | 223 | 1.7 | 6.1 | 0.00 | 0.02 | 0.01 | 90 | 1005.1 |
| 20260904030600 | 57 | 257 | 0.9 | 6.1 | 0.00 | 0.02 | 0.01 | 90 | 1005.1 |
| 20260904025602 | 57 | 159 | 1.7 | 7.0 | 0.00 | 0.02 | 0.01 | 90 | 1005.1 |
| 20260904025059 | 57 | 232 | 1.7 | 7.0 | 0.00 | 0.02 | 0.01 | 90 | 1005.2 |
| 20260904024600 | 57 | 333 | 0.9 | 7.8 | 0.00 | 0.02 | 0.01 | 90 | 1005.2 |
| 20260904024057 | 57 | 290 | 1.7 | 7.8 | 0.00 | 0.02 | 0.01 | 90 | 1005.3 |
| 20260904023557 | 57 | 186 | 0.0 | 3.5 | 0.00 | 0.02 | 0.01 | 90 | 1005.4 |
| 20260904023058 | 57 | 266 | 1.7 | 4.3 | 0.00 | 0.02 | 0.01 | 90 | 1005.3 |
| 20260904022557 | 57 | 232 | 0.9 | 4.3 | 0.00 | 0.02 | 0.01 | 90 | 1005.3 |
| 20260904022055 | 57 | 203 | 0.9 | 4.3 | 0.00 | 0.02 | 0.01 | 90 | 1005.4 |
| 20260904021556 | 57 | 276 | 0.9 | 6.1 | 0.00 | 0.02 | 0.01 | 90 | 1005.4 |
| 20260904021056 | 57 | 188 | 1.7 | 7.0 | 0.00 | 0.02 | 0.01 | 90 | 1005.5 |
| 20260904020555 | 57 | 268 | 1.7 | 7.0 | 0.00 | 0.02 | 0.01 | 90 | 1005.7 |
| 20260904020055 | 57 | 187 | 0.0 | 4.3 | 0.00 | 0.02 | 0.01 | 90 | 1005.5 |
| 20260904015553 | 57 | 298 | 1.7 | 4.3 | 0.00 | 0.02 | 0.01 | 90 | 1005.5 |
| 20260904015053 | 57 | 250 | 0.9 | 4.3 | 0.00 | 0.02 | 0.01 | 90 | 1005.7 |
| 20260904014559 | 57 | 185 | 1.7 | 8.7 | 0.00 | 0.02 | 0.01 | 90 | 1005.7 |
| 20260904014053 | 57 | 270 | 0.0 | 8.7 | 0.00 | 0.02 | 0.01 | 90 | 1005.9 |
| 20260904013551 | 57 | 260 | 0.9 | 7.8 | 0.00 | 0.02 | 0.01 | 90 | 1005.9 |
| 20260904013055 | 57 | 292 | 0.9 | 7.8 | 0.00 | 0.02 | 0.01 | 90 | 1005.9 |
| 20260904012552 | 57 | 274 | 1.7 | 7.0 | 0.00 | 0.02 | 0.01 | 90 | 1006.0 |
| 20260904012051 | 57 | 164 | 1.7 | 7.0 | 0.00 | 0.02 | 0.01 | 91 | 1006.0 |
| 20260904011551 | 58 | 188 | 0.9 | 9.6 | 0.00 | 0.02 | 0.01 | 91 | 1006.1 |
| 20260904011049 | 58 | 240 | 1.7 | 9.6 | 0.00 | 0.02 | 0.01 | 91 | 1006.1 |
| 20260904010548 | 58 | 167 | 1.7 | 6.1 | 0.00 | 0.02 | 0.01 | 91 | 1006.0 |
| 20260904010049 | 58 | 161 | 0.9 | 7.8 | 0.00 | 0.02 | 0.01 | 91 | 1006.0 |
| 20260904005547 | 58 | 290 | 1.7 | 7.8 | 0.00 | 0.03 | 0.01 | 92 | 1006.0 |
| 20260904005047 | 58 | 220 | 1.7 | 7.8 | 0.00 | 0.03 | 0.01 | 92 | 1006.0 |
| 20260904004647 | 58 | 192 | 0.9 | 7.8 | 0.01 | 0.03 | 0.01 | 92 | 1006.1 |
| 20260904004049 | 58 | 286 | 0.9 | 7.8 | 0.01 | 0.03 | 0.01 | 92 | 1006.0 |
| 20260904003550 | 58 | 253 | 2.6 | 7.0 | 0.01 | 0.03 | 0.01 | 92 | 1006.0 |
| 20260904003046 | 58 | 305 | 0.9 | 10.4 | 0.01 | 0.03 | 0.01 | 92 | 1006.1 |
| 20260904002547 | 58 | 263 | 1.7 | 4.3 | 0.01 | 0.03 | 0.01 | 92 | 1006.0 |
| 20260904002045 | 58 | 295 | 1.7 | 7.8 | 0.01 | 0.03 | 0.01 | 92 | 1006.2 |
| 20260904001544 | 58 | 246 | 0.9 | 7.8 | 0.01 | 0.03 | 0.01 | 92 | 1006.1 |
| 20260904001043 | 58 | 219 | 2.6 | 7.8 | 0.01 | 0.03 | 0.01 | 92 | 1006.1 |
| 20260904000543 | 58 | 261 | 1.7 | 7.8 | 0.01 | 0.03 | 0.01 | 92 | 1006.2 |
| 20260904000043 | 58 | 223 | 2.6 | 7.8 | 0.01 | 0.03 | 0.01 | 92 | 1006.2 |
| 20260903235542 | 58 | 192 | 1.7 | 4.3 | 0.01 | 0.03 | 0.01 | 92 | 1006.2 |
| 20260903235042 | 58 | 279 | 0.9 | 5.2 | 0.00 | 0.02 | 0.00 | 92 | 1006.3 |
| 20260903234542 | 58 | 88 | 0.9 | 7.0 | 0.00 | 0.02 | 0.00 | 92 | 1006.2 |
| 20260903234042 | 58 | 288 | 2.6 | 7.0 | 0.00 | 0.02 | 0.00 | 92 | 1006.3 |
| 20260903233541 | 58 | 257 | 1.7 | 4.3 | 0.00 | 0.02 | 0.00 | 92 | 1006.3 |
| 20260903233042 | 58 | 202 | 0.9 | 4.3 | 0.00 | 0.02 | 0.00 | 92 | 1006.2 |
| 20260903232541 | 58 | 129 | 0.0 | 3.5 | 0.00 | 0.02 | 0.00 | 92 | 1006.1 |
| 20260903232041 | 58 | 191 | 0.9 | 7.0 | 0.00 | 0.02 | 0.00 | 92 | 1006.2 |
| 20260903231557 | 58 | 263 | 0.9 | 7.0 | 0.00 | 0.02 | 0.00 | 92 | 1006.2 |
| 20260903231040 | 58 | 351 | 0.9 | 5.2 | 0.00 | 0.02 | 0.00 | 92 | 1006.4 |
| 20260903230540 | 58 | 191 | 0.9 | 5.2 | 0.00 | 0.02 | 0.00 | 92 | 1006.4 |
| 20260903230041 | 58 | 302 | 0.9 | 6.1 | 0.00 | 0.02 | 0.00 | 92 | 1006.3 |
| 20260903225540 | 58 | 272 | 1.7 | 3.5 | 0.00 | 0.02 | 0.00 | 92 | 1006.3 |
| 20260903225039 | 58 | 246 | 0.9 | 6.1 | 0.00 | 0.02 | 0.00 | 92 | 1006.4 |
| 20260903224539 | 58 | 136 | 0.9 | 6.1 | 0.00 | 0.02 | 0.00 | 92 | 1006.2 |
| 20260903224042 | 58 | 233 | 0.9 | 4.3 | 0.00 | 0.02 | 0.00 | 92 | 1006.3 |
| 20260903223539 | 58 | 220 | 1.7 | 7.0 | 0.00 | 0.02 | 0.00 | 92 | 1006.3 |
| 20260903223044 | 58 | 232 | 2.6 | 7.0 | 0.00 | 0.02 | 0.00 | 93 | 1006.2 |
| 20260903222537 | 58 | 319 | 0.9 | 5.2 | 0.00 | 0.02 | 0.00 | 92 | 1006.3 |
| 20260903222037 | 58 | 194 | 0.9 | 7.0 | 0.00 | 0.02 | 0.00 | 92 | 1006.5 |
| 20260903221539 | 58 | 302 | 1.7 | 7.0 | 0.00 | 0.02 | 0.00 | 92 | 1006.5 |
| 20260903221036 | 58 | 290 | 1.7 | 5.2 | 0.00 | 0.02 | 0.00 | 92 | 1006.5 |
| 20260903220537 | 58 | 285 | 0.9 | 4.3 | 0.00 | 0.02 | 0.00 | 92 | 1006.4 |
| 20260903220056 | 58 | 192 | 1.7 | 7.8 | 0.00 | 0.02 | 0.00 | 92 | 1006.6 |
| 20260903215537 | 58 | 263 | 2.6 | 7.8 | 0.00 | 0.02 | 0.02 | 92 | 1006.6 |
| 20260903215033 | 58 | 245 | 1.7 | 7.8 | 0.00 | 0.02 | 0.02 | 92 | 1006.6 |
| 20260903214534 | 58 | 317 | 0.9 | 7.8 | 0.00 | 0.02 | 0.02 | 92 | 1006.5 |
| 20260903214033 | 58 | 336 | 0.9 | 4.3 | 0.00 | 0.02 | 0.02 | 92 | 1006.5 |
| 20260903213532 | 58 | 149 | 1.7 | 6.1 | 0.00 | 0.02 | 0.02 | 92 | 1006.4 |
| 20260903213033 | 58 | 270 | 1.7 | 6.1 | 0.00 | 0.02 | 0.02 | 92 | 1006.5 |
| 20260903212533 | 58 | 323 | 1.7 | 9.6 | 0.00 | 0.02 | 0.02 | 92 | 1006.4 |
| 20260903212034 | 58 | 195 | 0.9 | 9.6 | 0.00 | 0.02 | 0.02 | 92 | 1006.4 |
| 20260903211532 | 58 | 221 | 1.7 | 8.7 | 0.00 | 0.02 | 0.02 | 92 | 1006.4 |
| 20260903211031 | 59 | 185 | 1.7 | 8.7 | 0.00 | 0.02 | 0.02 | 92 | 1006.3 |
| 20260903210536 | 59 | 229 | 1.7 | 8.7 | 0.01 | 0.02 | 0.02 | 92 | 1006.4 |
| 20260903210035 | 59 | 213 | 2.6 | 7.8 | 0.01 | 0.02 | 0.02 | 92 | 1006.5 |
| 20260903205531 | 59 | 204 | 1.7 | 6.1 | 0.01 | 0.02 | 0.02 | 92 | 1006.4 |
| 20260903205031 | 59 | 234 | 0.9 | 6.1 | 0.01 | 0.02 | 0.02 | 92 | 1006.4 |
| 20260903204531 | 59 | 286 | 1.7 | 7.0 | 0.01 | 0.02 | 0.02 | 92 | 1006.4 |
| 20260903204032 | 59 | 267 | 2.6 | 7.0 | 0.01 | 0.02 | 0.02 | 92 | 1006.4 |
| 20260903203533 | 59 | 186 | 1.7 | 8.7 | 0.01 | 0.02 | 0.02 | 92 | 1006.4 |
| 20260903203030 | 59 | 229 | 1.7 | 8.7 | 0.01 | 0.02 | 0.02 | 92 | 1006.3 |
| 20260903202534 | 59 | 196 | 2.6 | 9.6 | 0.01 | 0.02 | 0.02 | 92 | 1006.3 |
| 20260903202032 | 59 | 169 | 1.7 | 8.7 | 0.01 | 0.02 | 0.02 | 93 | 1006.2 |
| 20260903201529 | 59 | 345 | 1.7 | 10.4 | 0.01 | 0.02 | 0.02 | 93 | 1006.3 |
| 20260903201028 | 59 | 288 | 1.7 | 10.4 | 0.01 | 0.02 | 0.02 | 93 | 1006.3 |
| 20260903200528 | 59 | 327 | 2.6 | 7.0 | 0.00 | 0.02 | 0.02 | 93 | 1006.3 |
| 20260903200041 | 59 | 298 | 1.7 | 7.0 | 0.00 | 0.02 | 0.02 | 93 | 1006.3 |
| 20260903195529 | 59 | 265 | 0.9 | 7.0 | 0.00 | 0.02 | 0.02 | 93 | 1006.3 |
| 20260903195028 | 59 | 279 | 1.7 | 7.8 | 0.00 | 0.02 | 0.02 | 93 | 1006.3 |
| 20260903194540 | 60 | 227 | 1.7 | 7.8 | 0.00 | 0.02 | 0.02 | 93 | 1006.3 |
| 20260903194027 | 60 | 303 | 2.6 | 7.8 | 0.00 | 0.02 | 0.02 | 93 | 1006.4 |
| 20260903193529 | 60 | 287 | 2.6 | 9.6 | 0.00 | 0.02 | 0.02 | 93 | 1006.3 |
| 20260903193027 | 60 | 300 | 3.5 | 9.6 | 0.00 | 0.02 | 0.02 | 93 | 1006.4 |
| 20260903192530 | 60 | 231 | 1.7 | 8.7 | 0.00 | 0.02 | 0.02 | 93 | 1006.4 |
| 20260903192026 | 60 | 236 | 2.6 | 7.0 | 0.00 | 0.02 | 0.02 | 93 | 1006.4 |
| 20260903191526 | 60 | 189 | 1.7 | 9.6 | 0.00 | 0.02 | 0.02 | 93 | 1006.5 |
| 20260903191027 | 60 | 283 | 0.9 | 9.6 | 0.00 | 0.02 | 0.02 | 93 | 1006.4 |
| 20260903190528 | 60 | 98 | 1.7 | 7.8 | 0.00 | 0.02 | 0.02 | 93 | 1006.3 |
| 20260903190027 | 60 | 161 | 1.7 | 7.8 | 0.00 | 0.02 | 0.02 | 93 | 1006.2 |
| 20260903185527 | 60 | 200 | 1.7 | 7.0 | 0.00 | 0.02 | 0.02 | 93 | 1006.2 |
| 20260903185025 | 61 | 216 | 1.7 | 7.8 | 0.00 | 0.02 | 0.02 | 93 | 1006.1 |
| 20260903184525 | 61 | 272 | 2.6 | 9.6 | 0.00 | 0.02 | 0.02 | 93 | 1006.0 |
| 20260903184024 | 61 | 316 | 1.7 | 10.4 | 0.00 | 0.02 | 0.02 | 93 | 1006.1 |
| 20260903183525 | 61 | 307 | 1.7 | 7.8 | 0.00 | 0.02 | 0.02 | 94 | 1006.1 |
| 20260903183037 | 61 | 286 | 2.6 | 7.8 | 0.00 | 0.02 | 0.02 | 94 | 1006.1 |
| 20260903182529 | 61 | 292 | 1.7 | 7.0 | 0.00 | 0.02 | 0.02 | 94 | 1006.0 |
| 20260903182025 | 61 | 268 | 2.6 | 7.0 | 0.00 | 0.02 | 0.02 | 94 | 1006.1 |
| 20260903181527 | 61 | 333 | 1.7 | 6.1 | 0.00 | 0.02 | 0.02 | 94 | 1006.1 |
| 20260903181023 | 62 | 290 | 1.7 | 8.7 | 0.00 | 0.02 | 0.02 | 94 | 1006.0 |
| 20260903180523 | 62 | 167 | 1.7 | 11.3 | 0.00 | 0.02 | 0.02 | 94 | 1005.9 |
| 20260903180033 | 62 | 229 | 1.7 | 11.3 | 0.00 | 0.02 | 0.02 | 94 | 1005.9 |
| 20260903175522 | 62 | 311 | 1.7 | 7.8 | 0.00 | 0.02 | 0.02 | 94 | 1005.9 |
| 20260903175023 | 62 | 178 | 0.9 | 5.2 | 0.00 | 0.02 | 0.02 | 94 | 1005.8 |
| 20260903174525 | 62 | 283 | 0.9 | 7.8 | 0.00 | 0.02 | 0.02 | 94 | 1005.8 |
| 20260903174023 | 62 | 266 | 2.6 | 7.8 | 0.00 | 0.02 | 0.02 | 94 | 1005.8 |
| 20260903173522 | 62 | 252 | 0.9 | 6.1 | 0.00 | 0.02 | 0.02 | 94 | 1005.7 |
| 20260903173023 | 62 | 178 | 1.7 | 6.1 | 0.00 | 0.02 | 0.02 | 94 | 1005.5 |
| 20260903172522 | 62 | 171 | 1.7 | 7.8 | 0.00 | 0.02 | 0.02 | 94 | 1005.4 |
| 20260903172022 | 62 | 292 | 1.7 | 8.7 | 0.00 | 0.02 | 0.02 | 94 | 1005.4 |
| 20260903171526 | 62 | 304 | 2.6 | 8.7 | 0.00 | 0.02 | 0.02 | 94 | 1005.4 |
| 20260903171022 | 63 | 232 | 1.7 | 9.6 | 0.00 | 0.02 | 0.02 | 94 | 1005.4 |
| 20260903170521 | 63 | 213 | 1.7 | 9.6 | 0.00 | 0.02 | 0.02 | 94 | 1005.4 |
| 20260903170023 | 63 | 292 | 1.7 | 4.3 | 0.00 | 0.02 | 0.02 | 95 | 1005.2 |
| 20260903165521 | 63 | 176 | 0.9 | 12.2 | 0.00 | 0.02 | 0.02 | 95 | 1005.3 |
| 20260903165020 | 63 | 227 | 2.6 | 12.2 | 0.00 | 0.02 | 0.02 | 95 | 1005.2 |
| 20260903164520 | 63 | 230 | 4.3 | 11.3 | 0.00 | 0.02 | 0.02 | 95 | 1005.1 |
| 20260903164022 | 63 | 281 | 1.7 | 7.8 | 0.00 | 0.02 | 0.02 | 95 | 1005.2 |
| 20260903163519 | 63 | 261 | 1.7 | 7.0 | 0.00 | 0.02 | 0.02 | 96 | 1005.1 |
| 20260903163020 | 63 | 227 | 1.7 | 8.7 | 0.00 | 0.02 | 0.02 | 96 | 1005.0 |
| 20260903162520 | 64 | 243 | 2.6 | 9.6 | 0.00 | 0.02 | 0.02 | 96 | 1005.0 |
| 20260903162019 | 64 | 246 | 0.9 | 9.6 | 0.00 | 0.02 | 0.02 | 96 | 1004.9 |
| 20260903161527 | 64 | 252 | 2.6 | 7.8 | 0.00 | 0.02 | 0.02 | 96 | 1005.0 |
| 20260903161019 | 64 | 143 | 1.7 | 7.0 | 0.00 | 0.02 | 0.02 | 96 | 1004.9 |
| 20260903160519 | 63 | 198 | 1.7 | 7.8 | 0.00 | 0.02 | 0.02 | 96 | 1004.8 |
| 20260903160021 | 63 | 293 | 1.7 | 7.8 | 0.00 | 0.02 | 0.02 | 96 | 1004.9 |
| 20260903155520 | 63 | 200 | 1.7 | 7.0 | 0.00 | 0.02 | 0.02 | 96 | 1004.9 |
| 20260903155021 | 63 | 306 | 1.7 | 5.2 | 0.00 | 0.02 | 0.02 | 96 | 1004.9 |
| 20260903154619 | 63 | 214 | 1.7 | 6.1 | 0.00 | 0.02 | 0.02 | 96 | 1004.9 |
| 20260903154021 | 64 | 217 | 0.9 | 7.0 | 0.00 | 0.02 | 0.02 | 96 | 1005.0 |
| 20260903153518 | 64 | 257 | 1.7 | 7.0 | 0.00 | 0.02 | 0.02 | 96 | 1005.0 |
| 20260903153017 | 64 | 304 | 1.7 | 7.0 | 0.00 | 0.02 | 0.02 | 97 | 1005.1 |
| 20260903152517 | 64 | 192 | 2.6 | 7.0 | 0.00 | 0.02 | 0.02 | 96 | 1005.0 |
| 20260903152020 | 64 | 278 | 0.9 | 5.2 | 0.00 | 0.02 | 0.02 | 96 | 1005.0 |
| 20260903151515 | 64 | 211 | 0.9 | 4.3 | 0.00 | 0.02 | 0.02 | 97 | 1005.0 |
| 20260903151015 | 64 | 186 | 0.9 | 4.3 | 0.00 | 0.02 | 0.02 | 97 | 1004.9 |
| 20260903150513 | 64 | 219 | 0.9 | 4.3 | 0.00 | 0.02 | 0.02 | 97 | 1005.1 |
| 20260903150016 | 64 | 292 | 0.9 | 5.2 | 0.00 | 0.02 | 0.02 | 97 | 1005.1 |
| 20260903145516 | 64 | 332 | 0.9 | 3.5 | 0.00 | 0.02 | 0.02 | 97 | 1005.2 |
| 20260903145014 | 64 | 248 | 0.0 | 1.7 | 0.00 | 0.02 | 0.02 | 97 | 1005.2 |
| 20260903144513 | 64 | 244 | 0.0 | 1.7 | 0.00 | 0.02 | 0.02 | 97 | 1005.1 |
| 20260903144014 | 64 | 244 | 0.0 | 0.9 | 0.00 | 0.02 | 0.02 | 97 | 1005.2 |
| 20260903143513 | 64 | 244 | 0.0 | 2.6 | 0.00 | 0.02 | 0.02 | 97 | 1005.2 |
| 20260903143012 | 64 | 244 | 0.9 | 2.6 | 0.00 | 0.02 | 0.02 | 97 | 1005.3 |
| 20260903142512 | 64 | 217 | 0.9 | 6.1 | 0.00 | 0.02 | 0.02 | 97 | 1005.3 |
| 20260903142016 | 64 | 296 | 1.7 | 7.8 | 0.00 | 0.02 | 0.02 | 97 | 1005.2 |
| 20260903141511 | 64 | 202 | 3.5 | 7.8 | 0.00 | 0.02 | 0.02 | 97 | 1005.2 |
| 20260903141011 | 64 | 202 | 1.7 | 6.1 | 0.00 | 0.02 | 0.02 | 97 | 1005.2 |
| 20260903140510 | 63 | 182 | 1.7 | 6.1 | 0.00 | 0.02 | 0.02 | 97 | 1005.2 |
| 20260903140014 | 63 | 185 | 0.0 | 2.6 | 0.00 | 0.02 | 0.02 | 97 | 1005.3 |
| 20260903135508 | 63 | 185 | 0.9 | 3.5 | 0.00 | 0.02 | 0.02 | 97 | 1005.5 |
| 20260903135007 | 63 | 219 | 0.9 | 3.5 | 0.00 | 0.02 | 0.02 | 97 | 1005.6 |
| 20260903134507 | 63 | 202 | 0.0 | 2.6 | 0.00 | 0.02 | 0.02 | 97 | 1005.7 |
| 20260903134007 | 63 | 203 | 0.9 | 2.6 | 0.00 | 0.02 | 0.02 | 97 | 1005.7 |
| 20260903133506 | 62 | 175 | 0.0 | 1.7 | 0.00 | 0.02 | 0.02 | 97 | 1005.6 |
| 20260903133005 | 62 | 175 | 0.0 | 0.9 | 0.00 | 0.02 | 0.02 | 97 | 1005.6 |
| 20260903132504 | 62 | 175 | 0.0 | 0.0 | 0.00 | 0.02 | 0.02 | 97 | 1005.9 |
| 20260903132003 | 62 | 175 | 0.0 | 0.9 | 0.00 | 0.02 | 0.02 | 97 | 1006.0 |
| 20260903131506 | 62 | 175 | 0.0 | 1.7 | 0.00 | 0.02 | 0.02 | 97 | 1006.0 |
| 20260903131002 | 62 | 175 | 0.0 | 1.7 | 0.00 | 0.02 | 0.02 | 96 | 1006.1 |
| 20260903130501 | 62 | 175 | 0.0 | 2.6 | 0.00 | 0.02 | 0.02 | 96 | 1006.1 |
| 20260903130003 | 62 | 175 | 0.9 | 2.6 | 0.00 | 0.02 | 0.02 | 96 | 1006.2 |
| 20260903125502 | 62 | 164 | 0.0 | 2.6 | 0.00 | 0.02 | 0.02 | 96 | 1006.2 |
| 20260903125002 | 62 | 164 | 0.0 | 1.7 | 0.00 | 0.02 | 0.02 | 96 | 1006.1 |
| 20260903124501 | 62 | 164 | 0.0 | 2.6 | 0.00 | 0.02 | 0.02 | 96 | 1006.0 |
| 20260903124001 | 62 | 164 | 0.9 | 2.6 | 0.00 | 0.02 | 0.02 | 96 | 1006.3 |
| 20260903123600 | 62 | 207 | 0.9 | 3.5 | 0.00 | 0.02 | 0.02 | 96 | 1006.4 |
| 20260903123100 | 62 | 201 | 1.7 | 3.5 | 0.00 | 0.02 | 0.02 | 96 | 1006.2 |
| 20260903122601 | 62 | 188 | 1.7 | 3.5 | 0.00 | 0.02 | 0.02 | 96 | 1006.0 |
| 20260903122058 | 62 | 173 | 0.0 | 2.6 | 0.00 | 0.02 | 0.02 | 97 | 1006.2 |
| 20260903121600 | 61 | 163 | 0.0 | 4.3 | 0.00 | 0.02 | 0.02 | 97 | 1006.6 |
| 20260903121056 | 61 | 186 | 1.7 | 4.3 | 0.00 | 0.02 | 0.02 | 96 | 1006.7 |
| 20260903120558 | 61 | 215 | 2.6 | 5.2 | 0.00 | 0.02 | 0.02 | 96 | 1006.7 |
| 20260903120056 | 61 | 182 | 0.9 | 4.3 | 0.00 | 0.02 | 0.02 | 96 | 1006.7 |
| 20260903115554 | 61 | 196 | 0.9 | 5.2 | 0.00 | 0.02 | 0.02 | 96 | 1006.8 |
| 20260903115054 | 61 | 198 | 2.6 | 5.2 | 0.00 | 0.02 | 0.02 | 96 | 1006.8 |
| 20260903114553 | 61 | 181 | 0.9 | 5.2 | 0.00 | 0.02 | 0.02 | 96 | 1006.9 |
| 20260903114052 | 61 | 161 | 1.7 | 5.2 | 0.00 | 0.02 | 0.02 | 96 | 1007.1 |
| 20260903113557 | 61 | 188 | 1.7 | 4.3 | 0.00 | 0.02 | 0.02 | 96 | 1007.0 |
| 20260903113052 | 61 | 176 | 1.7 | 5.2 | 0.00 | 0.02 | 0.02 | 96 | 1007.1 |
| 20260903112554 | 61 | 211 | 1.7 | 5.2 | 0.00 | 0.02 | 0.02 | 96 | 1007.1 |
| 20260903112050 | 61 | 165 | 2.6 | 6.1 | 0.00 | 0.02 | 0.02 | 96 | 1007.1 |
| 20260903111550 | 61 | 198 | 1.7 | 6.1 | 0.00 | 0.02 | 0.02 | 96 | 1007.2 |
| 20260903111050 | 61 | 167 | 2.6 | 6.1 | 0.00 | 0.02 | 0.02 | 96 | 1007.1 |
| 20260903110548 | 61 | 210 | 2.6 | 6.1 | 0.00 | 0.02 | 0.02 | 96 | 1007.2 |
| 20260903110048 | 61 | 188 | 1.7 | 3.5 | 0.00 | 0.02 | 0.02 | 96 | 1007.3 |
| 20260903105547 | 61 | 159 | 0.9 | 5.2 | 0.01 | 0.02 | 0.02 | 96 | 1007.4 |
| 20260903105047 | 61 | 197 | 1.7 | 5.2 | 0.01 | 0.02 | 0.02 | 96 | 1007.5 |
| 20260903104546 | 61 | 182 | 0.9 | 4.3 | 0.01 | 0.02 | 0.02 | 96 | 1007.5 |
| 20260903104045 | 61 | 161 | 1.7 | 5.2 | 0.01 | 0.02 | 0.02 | 96 | 1007.7 |
| 20260903103544 | 61 | 173 | 2.6 | 5.2 | 0.01 | 0.02 | 0.02 | 96 | 1007.7 |
| 20260903103045 | 60 | 183 | 2.6 | 6.1 | 0.01 | 0.02 | 0.02 | 96 | 1007.9 |
| 20260903102545 | 60 | 192 | 2.6 | 6.1 | 0.01 | 0.02 | 0.02 | 96 | 1007.9 |
| 20260903102042 | 60 | 158 | 2.6 | 6.1 | 0.01 | 0.02 | 0.02 | 96 | 1008.0 |
| 20260903101542 | 60 | 180 | 1.7 | 5.2 | 0.01 | 0.02 | 0.02 | 96 | 1008.0 |
| 20260903101041 | 60 | 209 | 2.6 | 6.1 | 0.01 | 0.02 | 0.02 | 96 | 1008.2 |
| 20260903100541 | 60 | 209 | 3.5 | 6.1 | 0.01 | 0.02 | 0.02 | 96 | 1008.2 |
| 20260903100040 | 60 | 153 | 1.7 | 8.7 | 0.01 | 0.02 | 0.02 | 96 | 1008.3 |
| 20260903095539 | 60 | 200 | 3.5 | 8.7 | 0.00 | 0.01 | 0.01 | 97 | 1008.4 |
| 20260903095040 | 60 | 218 | 1.7 | 7.0 | 0.00 | 0.01 | 0.01 | 97 | 1008.5 |
| 20260903094538 | 60 | 223 | 0.9 | 7.0 | 0.00 | 0.01 | 0.01 | 97 | 1008.4 |
| 20260903094038 | 60 | 196 | 2.6 | 6.1 | 0.00 | 0.01 | 0.01 | 97 | 1008.6 |
| 20260903093538 | 60 | 199 | 2.6 | 5.2 | 0.00 | 0.01 | 0.01 | 97 | 1008.7 |
| 20260903093035 | 59 | 257 | 1.7 | 5.2 | 0.00 | 0.01 | 0.01 | 97 | 1008.8 |
| 20260903092534 | 59 | 144 | 1.7 | 6.1 | 0.00 | 0.01 | 0.01 | 97 | 1008.9 |
| 20260903092032 | 59 | 186 | 1.7 | 6.1 | 0.00 | 0.01 | 0.01 | 97 | 1008.9 |
| 20260903091546 | 59 | 187 | 1.7 | 6.1 | 0.00 | 0.01 | 0.01 | 97 | 1009.1 |
| 20260903091031 | 60 | 192 | 2.6 | 7.8 | 0.00 | 0.01 | 0.01 | 97 | 1009.2 |
| 20260903090531 | 60 | 161 | 1.7 | 7.8 | 0.00 | 0.01 | 0.01 | 97 | 1009.2 |
| 20260903090030 | 60 | 204 | 0.9 | 6.1 | 0.00 | 0.01 | 0.01 | 97 | 1009.3 |
| 20260903085529 | 59 | 192 | 0.9 | 4.3 | 0.00 | 0.01 | 0.01 | 97 | 1009.3 |
| 20260903085028 | 59 | 175 | 0.9 | 4.3 | 0.00 | 0.01 | 0.01 | 97 | 1009.3 |
| 20260903084528 | 59 | 259 | 0.9 | 3.5 | 0.00 | 0.01 | 0.01 | 97 | 1009.5 |
| 20260903084027 | 59 | 185 | 0.0 | 4.3 | 0.00 | 0.01 | 0.01 | 97 | 1009.6 |
| 20260903083526 | 59 | 158 | 0.9 | 4.3 | 0.00 | 0.01 | 0.01 | 97 | 1009.6 |
| 20260903083027 | 59 | 171 | 1.7 | 5.2 | 0.00 | 0.01 | 0.01 | 97 | 1009.6 |
| 20260903082525 | 59 | 175 | 0.9 | 4.3 | 0.00 | 0.01 | 0.01 | 97 | 1009.7 |
| 20260903082023 | 59 | 205 | 0.9 | 4.3 | 0.00 | 0.01 | 0.01 | 97 | 1009.7 |
| 20260903081523 | 59 | 196 | 0.0 | 4.3 | 0.00 | 0.01 | 0.01 | 97 | 1009.8 |
| 20260903081022 | 59 | 203 | 0.9 | 3.5 | 0.00 | 0.01 | 0.01 | 97 | 1009.8 |
| 20260903080522 | 59 | 172 | 0.9 | 2.6 | 0.00 | 0.01 | 0.01 | 98 | 1009.8 |
| 20260903080021 | 59 | 186 | 0.0 | 2.6 | 0.00 | 0.01 | 0.01 | 98 | 1009.8 |
| 20260903075520 | 59 | 154 | 0.0 | 2.6 | 0.00 | 0.01 | 0.01 | 98 | 1009.9 |
| 20260903075022 | 59 | 245 | 0.0 | 2.6 | 0.00 | 0.01 | 0.01 | 98 | 1009.9 |
| 20260903074518 | 59 | 246 | 0.0 | 2.6 | 0.00 | 0.01 | 0.01 | 98 | 1010.0 |
| 20260903074017 | 59 | 232 | 0.0 | 2.6 | 0.00 | 0.01 | 0.01 | 98 | 1010.0 |
| 20260903073619 | 59 | 232 | 0.0 | 2.6 | 0.00 | 0.01 | 0.01 | 98 | 1010.0 |
| 20260903073018 | 59 | 178 | 0.9 | 2.6 | 0.00 | 0.01 | 0.01 | 97 | 1010.0 |
| 20260903072516 | 59 | 178 | 0.9 | 2.6 | 0.00 | 0.01 | 0.01 | 98 | 1010.0 |
| 20260903072015 | 59 | 178 | 0.0 | 1.7 | 0.00 | 0.01 | 0.01 | 98 | 1010.1 |